When you browse on this site, cookies collect data to enhance your experience and personalize the content and advertising you see.
Visit our Privacy Policy to learn more. By continuing to use the site, you agree to this use of cookies and data.
  • In Latvia
  • List of Countries
  • For 7 days
  • Water Temperature
  • Satellite Maps
  • Weather Map
  • Weather Widgets
  • user-avatar
    Login

    Hourly Weather Korzenica

    Today, 19 June, Wednesday

    Time Temperature Precipitation Wind Pressure Humidity
    00:00 +19°C° 0 mm 3 mps 744 mmHg 95%
    01:00 +19°C° 0 mm 3 mps 744 mmHg 95%
    02:00 +18°C° 0 mm 3 mps 744 mmHg 96%
    03:00 +18°C° 0 mm 3 mps 744 mmHg 96%
    04:00 +18°C° 0 mm 3 mps 743 mmHg 96%
    05:00 +18°C° 0 mm 3 mps 743 mmHg 96%
    06:00 +19°C° 0 mm 3 mps 743 mmHg 93%
    07:00 +20°C° 0 mm 4 mps 743 mmHg 91%
    08:00 +22°C° 0 mm 4 mps 743 mmHg 88%
    09:00 +23°C° 0.1 mm 4 mps 743 mmHg 85%
    10:00 +25°C° 0.1 mm 4 mps 743 mmHg 81%
    11:00 +26°C° 0.1 mm 4 mps 743 mmHg 78%
    12:00 +27°C° 1.4 mm 4 mps 742 mmHg 76%
    13:00 +27°C° 1.4 mm 3 mps 742 mmHg 73%
    14:00 +28°C° 1.4 mm 3 mps 742 mmHg 71%
    15:00 +28°C° 0.5 mm 3 mps 742 mmHg 73%
    16:00 +27°C° 0.5 mm 3 mps 741 mmHg 74%
    17:00 +27°C° 0.5 mm 3 mps 741 mmHg 76%
    18:00 +26°C° 0.2 mm 3 mps 741 mmHg 80%
    19:00 +25°C° 0.2 mm 3 mps 741 mmHg 84%
    20:00 +22°C° 0.2 mm 3 mps 740 mmHg 88%
    21:00 +22°C° 0 mm 3 mps 740 mmHg 89%
    22:00 +21°C° 0 mm 3 mps 741 mmHg 90%
    23:00 +21°C° 0 mm 2 mps 741 mmHg 91%

    Tomorrow, 20 June, Thursday

    Time Temperature Precipitation Wind Pressure Humidity
    00:00 +20°C° 0 mm 2 mps 740 mmHg 91%
    01:00 +20°C° 0 mm 2 mps 740 mmHg 91%
    02:00 +19°C° 0 mm 2 mps 740 mmHg 90%
    03:00 +19°C° 0 mm 2 mps 740 mmHg 90%
    04:00 +19°C° 0 mm 2 mps 740 mmHg 89%
    05:00 +20°C° 0 mm 1 mps 740 mmHg 89%
    06:00 +21°C° 0 mm 2 mps 740 mmHg 86%
    07:00 +23°C° 0 mm 2 mps 740 mmHg 82%
    08:00 +25°C° 0 mm 2 mps 741 mmHg 79%
    09:00 +26°C° 0 mm 2 mps 741 mmHg 74%
    10:00 +27°C° 0 mm 3 mps 741 mmHg 68%
    11:00 +28°C° 0 mm 3 mps 741 mmHg 63%
    12:00 +29°C° 0 mm 3 mps 741 mmHg 60%
    13:00 +30°C° 0 mm 3 mps 740 mmHg 57%
    14:00 +30°C° 0 mm 3 mps 740 mmHg 54%
    15:00 +30°C° 0.2 mm 2 mps 740 mmHg 56%
    16:00 +30°C° 0.2 mm 2 mps 740 mmHg 59%
    17:00 +29°C° 0.2 mm 2 mps 740 mmHg 61%
    18:00 +27°C° 0.9 mm 2 mps 740 mmHg 69%
    19:00 +25°C° 0.9 mm 2 mps 740 mmHg 76%
    20:00 +23°C° 0.9 mm 2 mps 740 mmHg 84%
    21:00 +23°C° 0 mm 1 mps 740 mmHg 84%
    22:00 +22°C° 0 mm 1 mps 740 mmHg 84%
    23:00 +22°C° 0 mm 1 mps 741 mmHg 84%

    Day after tomorrow, 21 June, Friday

    Time Temperature Precipitation Wind Pressure Humidity
    00:00 +21°C° 0 mm 1 mps 741 mmHg 85%
    01:00 +21°C° 0 mm 1 mps 741 mmHg 86%
    02:00 +21°C° 0 mm 1 mps 741 mmHg 86%
    03:00 +20°C° 0 mm 1 mps 741 mmHg 86%
    04:00 +20°C° 0 mm 1 mps 741 mmHg 87%
    05:00 +20°C° 0 mm 1 mps 741 mmHg 87%
    06:00 +21°C° 0 mm 1 mps 741 mmHg 83%
    07:00 +23°C° 0 mm 1 mps 741 mmHg 79%
    08:00 +24°C° 0 mm 1 mps 742 mmHg 76%
    09:00 +26°C° 0 mm 1 mps 742 mmHg 72%
    10:00 +27°C° 0 mm 2 mps 742 mmHg 68%
    11:00 +28°C° 0 mm 2 mps 742 mmHg 63%
    12:00 +29°C° 0.2 mm 2 mps 742 mmHg 61%
    13:00 +29°C° 0.2 mm 1 mps 742 mmHg 59%
    14:00 +30°C° 0.2 mm 1 mps 741 mmHg 56%
    15:00 +29°C° 0.4 mm 1 mps 741 mmHg 59%
    16:00 +29°C° 0.4 mm 1 mps 741 mmHg 63%
    17:00 +28°C° 0.4 mm 1 mps 741 mmHg 66%
    18:00 +27°C° 0.5 mm 1 mps 741 mmHg 70%
    19:00 +26°C° 0.5 mm 1 mps 741 mmHg 74%
    20:00 +25°C° 0.5 mm 1 mps 741 mmHg 78%
    21:00 +24°C° 0.1 mm 1 mps 741 mmHg 81%
    22:00 +23°C° 0.1 mm 1 mps 741 mmHg 83%
    23:00 +22°C° 0.1 mm 1 mps 741 mmHg 85%

    22 June, Saturday

    Time Temperature Precipitation Wind Pressure Humidity
    00:00 +22°C° 0.1 mm 1 mps 741 mmHg 86%
    01:00 +21°C° 0.1 mm 1 mps 741 mmHg 86%
    02:00 +21°C° 0.1 mm 1 mps 741 mmHg 87%
    03:00 +21°C° 0.2 mm 1 mps 741 mmHg 88%
    04:00 +21°C° 0.2 mm 1 mps 742 mmHg 89%
    05:00 +21°C° 0.2 mm 1 mps 742 mmHg 90%
    06:00 +20°C° 0.1 mm 2 mps 742 mmHg 89%
    07:00 +21°C° 0.1 mm 2 mps 742 mmHg 89%
    08:00 +23°C° 0.1 mm 2 mps 742 mmHg 88%
    09:00 +22°C° 1 mm 3 mps 742 mmHg 87%
    10:00 +24°C° 1 mm 3 mps 742 mmHg 85%
    11:00 +25°C° 1 mm 4 mps 742 mmHg 84%
    12:00 +25°C° 1 mm 3 mps 742 mmHg 83%
    13:00 +25°C° 1 mm 3 mps 742 mmHg 82%
    14:00 +25°C° 1 mm 3 mps 742 mmHg 82%
    15:00 +25°C° 1.2 mm 2 mps 742 mmHg 81%
    16:00 +26°C° 1.2 mm 2 mps 742 mmHg 79%
    17:00 +26°C° 1.2 mm 2 mps 741 mmHg 78%
    18:00 +25°C° 0.5 mm 2 mps 741 mmHg 81%
    19:00 +24°C° 0.5 mm 2 mps 741 mmHg 85%
    20:00 +23°C° 0.5 mm 1 mps 741 mmHg 88%
    21:00 +22°C° 0.2 mm 1 mps 741 mmHg 89%
    22:00 +22°C° 0.2 mm 1 mps 741 mmHg 91%
    23:00 +19°C° 0.2 mm 0 mps 741 mmHg 92%

    23 June, Sunday

    Time Temperature Precipitation Wind Pressure Humidity
    00:00 +19°C° 0 mm 0 mps 741 mmHg 92%
    01:00 +19°C° 0 mm 0 mps 741 mmHg 93%
    02:00 +20°C° 0 mm 1 mps 741 mmHg 93%
    03:00 +20°C° 0.1 mm 1 mps 741 mmHg 94%
    04:00 +20°C° 0.1 mm 1 mps 741 mmHg 95%
    05:00 +19°C° 0.1 mm 1 mps 741 mmHg 95%
    06:00 +21°C° 0.2 mm 1 mps 741 mmHg 92%
    07:00 +21°C° 0.2 mm 2 mps 741 mmHg 89%
    08:00 +23°C° 0.2 mm 2 mps 741 mmHg 86%
    09:00 +24°C° 0.1 mm 2 mps 741 mmHg 81%
    10:00 +25°C° 0.1 mm 2 mps 741 mmHg 76%
    11:00 +27°C° 0.1 mm 3 mps 741 mmHg 70%
    12:00 +27°C° 0.5 mm 3 mps 741 mmHg 69%
    13:00 +27°C° 0.5 mm 3 mps 741 mmHg 69%
    14:00 +28°C° 0.5 mm 3 mps 740 mmHg 68%
    15:00 +26°C° 1.9 mm 4 mps 740 mmHg 75%
    16:00 +23°C° 1.9 mm 5 mps 740 mmHg 82%
    17:00 +22°C° 1.9 mm 6 mps 740 mmHg 89%
    18:00 +20°C° 0.1 mm 6 mps 741 mmHg 89%
    19:00 +19°C° 0.1 mm 5 mps 741 mmHg 89%
    20:00 +17°C° 0.1 mm 5 mps 741 mmHg 88%
    21:00 +17°C° 0 mm 5 mps 742 mmHg 88%
    22:00 +17°C° 0 mm 5 mps 742 mmHg 88%
    23:00 +16°C° 0 mm 5 mps 742 mmHg 87%

    24 June, Monday

    Time Temperature Precipitation Wind Pressure Humidity
    00:00 +16°C° 0 mm 5 mps 743 mmHg 88%
    01:00 +16°C° 0 mm 5 mps 743 mmHg 88%
    02:00 +16°C° 0 mm 5 mps 743 mmHg 89%
    03:00 +16°C° 0.3 mm 5 mps 743 mmHg 91%
    04:00 +16°C° 0.3 mm 5 mps 743 mmHg 93%
    05:00 +16°C° 0.3 mm 5 mps 743 mmHg 95%
    06:00 +15°C° 0.7 mm 6 mps 744 mmHg 95%
    07:00 +15°C° 0.7 mm 6 mps 744 mmHg 95%
    08:00 +15°C° 0.7 mm 6 mps 745 mmHg 95%
    09:00 +15°C° 0.2 mm 6 mps 745 mmHg 95%
    10:00 +15°C° 0.2 mm 6 mps 746 mmHg 95%
    11:00 +15°C° 0.2 mm 6 mps 746 mmHg 95%
    12:00 +14°C° 0.2 mm 6 mps 746 mmHg 94%
    13:00 +14°C° 0.2 mm 6 mps 747 mmHg 94%
    14:00 +14°C° 0.2 mm 5 mps 747 mmHg 93%
    15:00 +15°C° 0 mm 5 mps 747 mmHg 92%
    16:00 +15°C° 0 mm 4 mps 747 mmHg 91%
    17:00 +17°C° 0 mm 4 mps 747 mmHg 90%
    18:00 +17°C° 0 mm 3 mps 748 mmHg 89%
    19:00 +17°C° 0 mm 2 mps 748 mmHg 88%
    20:00 +17°C° 0 mm 2 mps 748 mmHg 87%
    21:00 +17°C° 0 mm 2 mps 748 mmHg 87%
    22:00 +17°C° 0 mm 2 mps 749 mmHg 86%
    23:00 +17°C° 0 mm 3 mps 749 mmHg 86%
    Show more